< < Back
Terminal Aerodrome Forecast


Current Version              Previous Versions:   1  2  3  4  5  6  7  8  9  

Terminal Aerodrome Forecast

418
FTUS42 KILM 271700
TAFILM
TAF
KILM 271721Z 2718/2818 21010KT P6SM SCT120
     FM271900 21012G17KT P6SM VCSH FEW040 SCT120
     FM280000 21012KT P6SM SCT200
     FM280400 22010KT P6SM SCT150
     FM281400 25012KT P6SM FEW040 SCT150=



Latest METAR

529
SAUS70 KWBC 281400 RRD
MTRILM
METAR KILM 281353Z 26007KT 9SM CLR 28/23 A2982 RMK AO2 SLP099
T02830233


USA.gov is the U.S. government's official web portal to all federal, state and local government web resources and services.